星链-2548 (STARLINK-2548 )

导读 | 豆包AI

STARLINK-2548是美国SpaceX公司于2021年4月29日发射的星链(Starlink)卫星,属于星链星座第一代V1.5批次卫星。星链项目旨在构建全球覆盖的低轨卫星互联网,为地面网络覆盖不足区域提供高速宽带接入。该星配备氪离子推进系统与相控阵通信天线,运行于近地轨道,参与全球卫星互联网组网,助力星链实现全球无缝宽带覆盖,支持包括偏远地区网络接入、应急通信等多元场景应用。

Basic Information
目录编号:
48285
目录名称:
STARLINK-2548
国际标识:
2021-036K
轨道中心:
EARTH
卫星名称:
星链-2548
卫星全名:
星链-2548 (STARLINK-2548 )
卫星状态:
已陨落 最后检测时间 2024-05-25
发射日期:
2021-04-29 UTC
国别 :
美国 (US)
星等 :
--
Orbit Information
数据来源 国际轨道数据
星历时间: 2024-05-25T14:00:00+0800
轨道信息已过期704天
半长轴: 6567.458km
偏心率: 0.0004057
轨道倾角: 53.038°
近地点辐角 223.800°
升交点赤经 101.481°
平近点角 355.171°
近地点: 186.658km
远地点: 191.988km
周期: 88.279分钟
每日圈数: 16.311988
Detailed Information
固有亮度:
5
最大亮度:
2.5
卫星平台:
Starlink V1.0
覆盖范围:
全球
运营商:
太空探索技术公司
运营商所在国:
美国
制造商(研发单位):
太空探索技术公司
制造商所在国:
美国
使用方式:
暂无
Satellite Introduction
星链(Starlink)计划是由太空探索技术公司(SpaceX)提出的一个巨型低轨卫星互联网星座项目,计划在2019年至2024年间在太空搭建由约1.2万颗卫星组成的“星链”网络,其中1584颗将部署在地球上空550千米处的近地轨道,并从2020年开始工作。该卫星已陨落。